Погода в Ишхой-Юрте

Россия / Чеченская Республика     43°12′56″N   46°23′24″E
темп.,
°C
ветер,
м/с
пор.,
м/с
влажн.,
%
обл.,
%
осадки,
мм/ч
давл.,
гПа
погр.,
м
18 мая, вт
вт1800:00+21з51160100 0.0 1005372
03:00+19зюз91478100 0.0 1007752
06:00+18з71183100 0.1 1009868
09:00+18з8107961 0.5 1011901
12:00+21з7967100 0.1 10111248
15:00+22з575963 0.1 10111480
18:00+22зюз356623 0.0 1011211
21:00+18ююз44690 0.0 101250
19 мая, ср
ср1900:00+16юз22710 0.0 101114
03:00+15ююв11790 0.0 101011
06:00+17вюв23750 0.0 1010108
09:00+22в67570 0.0 1008745
12:00+26всв55474 0.0 10071064
15:00+27с34436 0.4 10091778
18:00+18зсз91376100 0.6 1015742
21:00+15зюз478199 0.6 1017573
20 мая, чт
чт2000:00+16зюз4879100 0.0 1017392
03:00+16з237892 0.0 101891
06:00+16всв117438 0.0 1019107
09:00+20св45522 0.0 10181010
12:00+23всв67440 0.0 10161334
15:00+23в89421 0.0 10151053
18:00+18в611570 0.0 1015391
21:00+14вюв35720 0.0 101693
21 мая, пт
пт2100:00+14ююв11770 0.0 101515
03:00+13юв11800 0.0 101412
06:00+16в24730 0.0 1014134
09:00+25в56480 0.0 1012596
12:00+29в67415 0.0 1010778
15:00+28в810440 0.0 1010532
18:00+22в59671 0.1 1011223
21:00+17вюв35800 0.1 101297
22 мая, сб
сб2200:00+17юв12811 0.0 101139
03:00+16ююв01845 0.0 101112
06:00+19в23745 0.0 101196
09:00+27в57451 0.0 1009612
12:00+31в910374 0.0 1007760
15:00+31в1013394 0.0 1005609
18:00+26в813525 0.0 1005331
21:00+22вюв476318 0.0 1006117